TimeEST,TemperatureF,Dew PointF,Humidity,Sea Level PressureIn,VisibilityMPH,Wind Direction,Wind SpeedMPH,Gust SpeedMPH,PrecipitationIn,Events,Conditions,WindDirDegrees,DateUTC
12:15 AM,35.6,26.6,70,29.98,10.0,NNW,3.5,-,N/A,,Clear,330,2013-02-24 05:15:00
12:35 AM,33.8,24.8,70,29.98,10.0,NNW,3.5,-,N/A,,Clear,340,2013-02-24 05:35:00
12:55 AM,35.6,23.0,60,29.98,10.0,Calm,Calm,-,N/A,,Clear,0,2013-02-24 05:55:00
1:15 AM,33.8,23.0,65,29.99,10.0,Calm,Calm,-,N/A,,Clear,0,2013-02-24 06:15:00
1:35 AM,32.0,23.0,69,30.00,10.0,Calm,Calm,-,N/A,,Clear,0,2013-02-24 06:35:00
1:55 AM,33.8,23.0,65,29.99,10.0,Calm,Calm,-,N/A,,Clear,0,2013-02-24 06:55:00
2:15 AM,32.0,26.6,80,30.00,10.0,Calm,Calm,-,N/A,,Clear,0,2013-02-24 07:15:00
2:35 AM,30.2,26.6,86,30.01,10.0,Calm,Calm,-,N/A,,Clear,0,2013-02-24 07:35:00
2:55 AM,28.4,26.6,93,29.98,10.0,Calm,Calm,-,N/A,,Clear,0,2013-02-24 07:55:00
3:15 AM,28.4,26.6,93,29.99,10.0,WSW,3.5,-,N/A,,Clear,250,2013-02-24 08:15:00
3:35 AM,28.4,26.6,93,30.01,10.0,Calm,Calm,-,N/A,,Clear,0,2013-02-24 08:35:00
3:55 AM,28.4,26.6,93,30.02,10.0,Calm,Calm,-,N/A,,Clear,0,2013-02-24 08:55:00
4:15 AM,28.4,26.6,93,30.02,10.0,Calm,Calm,-,N/A,,Clear,0,2013-02-24 09:15:00
4:35 AM,28.4,26.6,93,30.02,7.0,Calm,Calm,-,N/A,,Clear,0,2013-02-24 09:35:00
4:55 AM,28.4,26.6,93,30.02,5.0,Calm,Calm,-,N/A,,Clear,0,2013-02-24 09:55:00
5:15 AM,28.4,26.6,93,30.04,7.0,Calm,Calm,-,N/A,,Clear,0,2013-02-24 10:15:00
5:35 AM,28.4,26.6,93,30.05,10.0,Calm,Calm,-,N/A,,Clear,0,2013-02-24 10:35:00
5:55 AM,28.4,26.6,93,30.05,10.0,Calm,Calm,-,N/A,,Clear,0,2013-02-24 10:55:00
6:15 AM,26.6,26.6,100,30.06,10.0,Calm,Calm,-,N/A,,Clear,0,2013-02-24 11:15:00
6:35 AM,26.6,26.6,100,30.07,10.0,Calm,Calm,-,N/A,,Clear,0,2013-02-24 11:35:00
6:55 AM,28.4,26.6,93,30.07,10.0,Calm,Calm,-,N/A,,Clear,0,2013-02-24 11:55:00
7:15 AM,26.6,23.0,86,30.07,10.0,Calm,Calm,-,N/A,,Clear,0,2013-02-24 12:15:00
7:35 AM,24.8,23.0,93,30.08,5.0,Calm,Calm,-,N/A,,Clear,0,2013-02-24 12:35:00
7:55 AM,26.6,24.8,93,30.08,7.0,Calm,Calm,-,N/A,,Clear,0,2013-02-24 12:55:00
8:15 AM,28.4,26.6,93,30.09,7.0,Calm,Calm,-,N/A,,Clear,0,2013-02-24 13:15:00
8:35 AM,30.2,28.4,93,30.10,10.0,Calm,Calm,-,N/A,,Clear,0,2013-02-24 13:35:00
8:55 AM,30.2,26.6,86,30.12,10.0,Calm,Calm,-,N/A,,Clear,0,2013-02-24 13:55:00
9:15 AM,32.0,26.6,80,30.12,10.0,Calm,Calm,-,N/A,,Clear,0,2013-02-24 14:15:00
9:35 AM,32.0,26.6,80,30.12,10.0,Calm,Calm,-,N/A,,Clear,0,2013-02-24 14:35:00
9:55 AM,33.8,26.6,75,30.13,10.0,Calm,Calm,-,N/A,,Clear,0,2013-02-24 14:55:00
10:15 AM,35.6,24.8,65,30.12,10.0,Calm,Calm,-,N/A,,Clear,0,2013-02-24 15:15:00
10:35 AM,35.6,26.6,70,30.13,10.0,Calm,Calm,-,N/A,,Clear,0,2013-02-24 15:35:00
10:55 AM,35.6,24.8,65,30.13,10.0,Calm,Calm,-,N/A,,Clear,0,2013-02-24 15:55:00
11:15 AM,37.4,24.8,60,30.13,10.0,NNW,3.5,-,N/A,,Clear,340,2013-02-24 16:15:00
11:35 AM,39.2,26.6,61,30.13,10.0,WSW,3.5,-,N/A,,Clear,240,2013-02-24 16:35:00
11:55 AM,41.0,23.0,49,30.14,10.0,North,3.5,-,N/A,,Clear,10,2013-02-24 16:55:00
12:15 PM,42.8,23.0,46,30.14,10.0,NNE,5.8,-,N/A,,Clear,30,2013-02-24 17:15:00
12:35 PM,42.8,23.0,46,30.13,10.0,NNW,6.9,-,N/A,,Clear,340,2013-02-24 17:35:00
12:55 PM,44.6,23.0,43,30.13,10.0,Calm,Calm,-,N/A,,Clear,0,2013-02-24 17:55:00
1:15 PM,44.6,23.0,43,30.12,10.0,NW,4.6,-,N/A,,Clear,320,2013-02-24 18:15:00
1:35 PM,44.6,21.2,39,30.11,10.0,NNW,4.6,-,N/A,,Clear,330,2013-02-24 18:35:00
1:55 PM,44.6,21.2,39,30.10,10.0,Calm,Calm,-,N/A,,Clear,0,2013-02-24 18:55:00
2:15 PM,46.4,23.0,40,30.09,10.0,NNW,5.8,-,N/A,,Clear,340,2013-02-24 19:15:00
2:35 PM,46.4,21.2,37,30.09,10.0,North,6.9,-,N/A,,Clear,10,2013-02-24 19:35:00
2:55 PM,46.4,21.2,37,30.09,10.0,Calm,Calm,-,N/A,,Clear,0,2013-02-24 19:55:00
3:15 PM,48.2,21.2,34,30.09,10.0,NE,6.9,-,N/A,,Clear,40,2013-02-24 20:15:00
3:35 PM,48.2,21.2,34,30.08,10.0,NNE,8.1,-,N/A,,Clear,30,2013-02-24 20:35:00
3:55 PM,50.0,21.2,32,30.09,10.0,Calm,Calm,-,N/A,,Clear,0,2013-02-24 20:55:00
4:15 PM,48.2,21.2,34,30.09,10.0,NNE,5.8,-,N/A,,Clear,20,2013-02-24 21:15:00
4:35 PM,48.2,21.2,34,30.08,10.0,NNW,4.6,-,N/A,,Clear,330,2013-02-24 21:35:00
4:55 PM,48.2,21.2,34,30.08,10.0,NNE,3.5,-,N/A,,Clear,30,2013-02-24 21:55:00
5:15 PM,46.4,21.2,37,30.08,10.0,NNE,5.8,-,N/A,,Clear,30,2013-02-24 22:15:00
5:35 PM,46.4,19.4,34,30.09,10.0,NE,5.8,-,N/A,,Clear,40,2013-02-24 22:35:00
5:55 PM,46.4,19.4,34,30.08,10.0,NE,5.8,-,N/A,,Clear,40,2013-02-24 22:55:00
6:15 PM,44.6,23.0,43,30.09,10.0,NE,8.1,-,N/A,,Clear,50,2013-02-24 23:15:00
6:35 PM,42.8,23.0,46,30.10,10.0,NE,5.8,-,N/A,,Clear,50,2013-02-24 23:35:00
6:55 PM,42.8,23.0,46,30.10,10.0,ENE,3.5,-,N/A,,Clear,60,2013-02-24 23:55:00
7:15 PM,41.0,23.0,49,30.10,10.0,ENE,3.5,-,N/A,,Clear,60,2013-02-25 00:15:00
7:35 PM,41.0,23.0,49,30.11,10.0,NE,3.5,-,N/A,,Clear,50,2013-02-25 00:35:00
7:55 PM,39.2,23.0,52,30.11,10.0,NE,3.5,-,N/A,,Clear,40,2013-02-25 00:55:00
8:15 PM,41.0,23.0,49,30.11,10.0,NNE,5.8,-,N/A,,Clear,30,2013-02-25 01:15:00
8:35 PM,39.2,23.0,52,30.12,10.0,NNE,4.6,-,N/A,,Clear,30,2013-02-25 01:35:00
8:55 PM,39.2,23.0,52,30.12,10.0,NE,4.6,-,N/A,,Clear,40,2013-02-25 01:55:00
9:15 PM,35.6,23.0,60,30.11,10.0,Calm,Calm,-,N/A,,Clear,0,2013-02-25 02:15:00
9:35 PM,37.4,23.0,56,30.11,10.0,Calm,Calm,-,N/A,,Clear,0,2013-02-25 02:35:00
9:55 PM,33.8,24.8,70,30.11,10.0,Calm,Calm,-,N/A,,Clear,0,2013-02-25 02:55:00
10:15 PM,33.8,24.8,70,30.11,10.0,Calm,Calm,-,N/A,,Clear,0,2013-02-25 03:15:00
10:35 PM,33.8,24.8,70,30.11,10.0,Calm,Calm,-,N/A,,Clear,0,2013-02-25 03:35:00
10:55 PM,35.6,23.0,60,30.10,10.0,Calm,Calm,-,N/A,,Clear,0,2013-02-25 03:55:00
11:15 PM,32.0,24.8,75,30.10,10.0,Calm,Calm,-,N/A,,Clear,0,2013-02-25 04:15:00
11:35 PM,35.6,23.0,60,30.09,10.0,Calm,Calm,-,N/A,,Clear,0,2013-02-25 04:35:00
11:55 PM,33.8,23.0,65,30.09,10.0,Calm,Calm,-,N/A,,Clear,0,2013-02-25 04:55:00